Terminal Aerodrome Forecast
Issued by NWS

Home | Current Version | Previous Version | Text Only | Print | Product List | Glossary On
Versions: 1 2 3 4 5 6 7 8 9 10 11 12 13 14 15 16 17 18 19 20 21 22 23 24 25 26
652
FTUS44 KOHX 240323 AAA
TAFCKV
TAF AMD
KCKV 240323Z 2403/2424 16006KT P6SM SKC
     FM240600 18010G15KT P6SM BKN250 WS020/19040KT
     FM241500 19015G23KT P6SM SCT150=

USA.gov is the U.S. government's official web portal to all federal, state and local government web resources and services.